Temp
30 32 32 34 34 34 34 33 32 33 32 31 32 32 30 27 27 27 26 25 24 24 23 21 20 19 18 18 17 17 18 18 19 19 18 18 18 19 19 20 20 20 19 20
30 31 34 34 33 33 33 33 33 33 32 31 32 32 32 30 29 29 27 26 25 25 24 22 21 20 19 19 18 18 19 19 19 19 19 19 19 19 19 19 20 20 20 20
32 33 34 33 32 33 33 33 33 33 32 32 31 31 32 31 30 29 28 28 26 26 25 23 21 20 20 19 18 19 20 20 20 20 19 20 20 20 20 20 20 19 20 20
32 32 32 32 33 33 33 33 33 33 32 33 32 33 32 33 31 30 30 28 28 26 26 25 23 21 21 20 19 19 21 21 21 21 19 20 19 20 20 20 20 18 20 19
32 31 31 32 33 33 33 33 33 33 33 33 32 33 31 33 32 32 31 30 29 28 26 26 24 23 22 22 21 21 22 21 21 21 21 19 20 19 19 19 19 19 19 20
33 31 33 33 34 33 33 32 32 33 34 31 34 33 33 33 33 34 33 31 30 29 28 26 25 24 23 22 22 21 22 22 22 22 22 21 21 19 19 19 19 19 19 19
30 31 32 31 32 33 33 33 31 31 31 32 33 33 35 36 35 35 34 33 31 30 29 27 26 25 24 23 22 21 22 23 22 22 22 22 22 21 20 20 19 19 19 20
30 29 31 32 33 32 32 34 33 30 32 33 31 32 34 36 35 34 34 34 33 32 30 28 27 26 25 24 23 22 21 23 23 22 22 22 21 21 21 20 19 19 19 20
31 31 33 33 34 34 32 32 35 34 33 34 34 34 35 36 36 35 33 33 33 32 31 29 28 27 25 24 24 23 23 24 23 23 23 22 22 22 21 21 19 19 19 18
32 31 32 32 33 33 34 34 32 33 31 31 33 33 35 35 36 34 33 33 32 32 31 30 28 27 26 25 25 24 23 24 24 24 23 23 23 22 22 21 19 18 18 18
32 32 31 32 31 32 31 33 34 35 34 33 32 34 36 35 36 34 33 32 31 31 31 30 29 28 26 26 25 24 23 22 21 22 21 21 20 21 20 19 18 18 17 17
32 32 31 31 33 34 34 34 34 33 31 33 34 35 37 36 35 33 34 32 32 31 30 29 28 27 26 25 25 24 23 22 21 20 21 22 20 18 19 20 20 19 18 17
31 30 31 31 31 32 33 34 35 35 35 33 32 34 36 36 34 33 33 32 30 30 29 28 27 26 25 24 23 23 22 21 20 21 22 19 18 20 19 19 19 18 17 17
30 31 31 31 31 33 31 33 34 35 33 33 34 34 35 35 35 34 32 32 30 28 28 27 25 24 23 22 21 21 21 20 21 20 18 19 18 17 17 18 18 17 17 16
31 29 30 32 33 34 33 33 33 33 34 34 34 34 35 35 35 36 33 30 28 27 26 25 24 23 22 21 22 21 20 20 21 21 19 19 19 18 18 18 17 17 17 16
30 28 30 30 32 32 33 34 34 34 34 34 35 34 36 35 35 33 31 29 28 27 26 24 23 22 21 21 20 20 21 20 19 19 19 20 19 19 18 18 17 17 17 15
28 29 28 29 31 31 30 32 33 33 34 34 33 34 35 35 33 33 32 30 29 28 25 24 22 21 21 20 19 18 20 20 20 20 19 19 19 18 18 17 17 16 14 13
27 27 28 29 30 28 31 34 33 33 32 33 34 35 34 33 33 33 33 31 29 27 25 23 22 20 19 18 18 20 20 20 20 19 19 18 18 18 17 17 15 14 11 11
28 27 28 28 29 30 31 32 32 32 32 33 33 33 33 33 30 31 29 30 28 26 23 22 21 19 18 17 19 21 20 19 19 18 18 18 18 17 16 15 14 14 12 11
27 26 28 28 28 28 31 33 32 33 31 33 33 33 34 30 31 35 30 26 25 23 21 20 19 17 17 17 20 19 19 17 17 18 18 18 17 16 14 13 13 12 10 10
25 25 26 28 28 30 33 33 32 29 31 33 33 32 33 31 33 30 28 25 23 21 19 18 17 17 16 17 18 18 18 18 18 17 18 17 16 15 14 12 11 10 10 9
25 25 26 27 27 27 33 33 31 32 33 33 32 32 32 30 28 26 24 22 21 19 17 17 16 15 15 16 18 18 19 19 19 18 17 17 16 14 11 12 10 10 9 9
26 27 28 28 28 31 30 32 31 32 32 33 33 31 31 28 26 24 22 21 19 18 17 16 15 15 16 18 18 19 19 19 19 17 16 16 15 13 11 12 10 10 9 10
26 28 28 28 29 30 30 29 28 28 28 31 31 31 29 28 25 23 21 20 18 17 16 15 15 16 17 17 17 18 19 18 16 17 15 15 13 10 13 10 9 9 8 8
29 27 27 28 30 29 30 29 30 29 27 27 28 29 28 27 24 22 20 18 17 16 15 15 15 16 16 16 17 17 17 16 15 15 13 10 10 11 10 10 10 7 8 8
28 28 28 29 29 29 30 29 28 28 27 26 27 27 26 25 22 20 18 17 16 15 15 14 14 16 16 16 17 17 17 16 16 14 11 11 11 10 9 9 7 8 7 8
Height
1510 1508 1508 1500 1498 1499 1503 1509 1514 1511 1517 1522 1519 1520 1529 1536 1539 1541 1545 1549 1552 1554 1557 1560 1564 1567 1570 1573 1574 1576 1578 1581 1584 1586 1588 1591 1592 1593 1593 1592 1591 1590 1589 1588
1510 1506 1495 1496 1502 1504 1505 1510 1512 1512 1514 1520 1515 1519 1518 1528 1533 1534 1540 1544 1548 1551 1554 1557 1561 1564 1565 1567 1569 1571 1574 1577 1581 1583 1586 1588 1590 1590 1591 1590 1590 1589 1588 1587
1498 1494 1495 1501 1504 1506 1503 1508 1510 1515 1516 1514 1518 1519 1516 1521 1527 1530 1534 1539 1544 1546 1550 1554 1558 1560 1562 1564 1566 1568 1570 1573 1577 1580 1583 1584 1586 1586 1587 1587 1587 1588 1586 1586
1493 1492 1498 1500 1502 1502 1506 1502 1508 1512 1518 1516 1511 1519 1513 1512 1520 1524 1527 1533 1538 1542 1546 1550 1555 1556 1559 1562 1565 1565 1566 1570 1573 1575 1578 1580 1582 1585 1587 1587 1587 1586 1584 1584
1491 1493 1499 1500 1497 1498 1502 1501 1507 1510 1513 1513 1515 1515 1513 1507 1515 1515 1520 1524 1531 1536 1541 1544 1549 1553 1557 1559 1562 1563 1565 1567 1570 1572 1575 1577 1578 1582 1583 1585 1585 1583 1581 1581
1482 1490 1491 1489 1492 1497 1501 1506 1508 1507 1505 1526 1501 1509 1505 1507 1504 1505 1512 1518 1523 1529 1535 1540 1545 1549 1552 1555 1558 1561 1562 1565 1567 1569 1571 1573 1576 1578 1581 1582 1582 1582 1581 1580
1487 1489 1488 1491 1493 1498 1499 1505 1523 1529 1526 1518 1502 1511 1491 1486 1493 1496 1502 1510 1516 1523 1529 1534 1538 1542 1546 1549 1553 1557 1558 1560 1563 1566 1568 1571 1573 1575 1576 1577 1579 1579 1578 1578
1489 1499 1484 1484 1485 1496 1498 1495 1508 1538 1520 1507 1509 1515 1498 1485 1490 1493 1498 1501 1509 1515 1522 1527 1532 1537 1540 1544 1547 1551 1553 1556 1560 1562 1565 1568 1570 1571 1573 1574 1574 1576 1576 1575
1476 1479 1473 1477 1480 1482 1493 1498 1481 1493 1493 1497 1496 1493 1486 1482 1484 1489 1494 1496 1500 1508 1515 1521 1527 1532 1536 1539 1542 1545 1549 1552 1556 1559 1561 1563 1566 1568 1569 1570 1570 1570 1570 1570
1462 1477 1468 1474 1479 1480 1479 1483 1502 1495 1516 1523 1501 1500 1492 1484 1479 1485 1489 1492 1499 1504 1511 1516 1521 1526 1531 1535 1539 1543 1546 1549 1553 1555 1557 1560 1561 1563 1564 1564 1564 1565 1564 1563
1459 1464 1470 1469 1477 1477 1488 1481 1482 1476 1484 1502 1509 1498 1471 1478 1478 1483 1486 1491 1496 1501 1506 1511 1517 1523 1527 1532 1536 1539 1544 1547 1549 1551 1554 1555 1557 1558 1559 1560 1560 1559 1559 1558
1454 1459 1469 1470 1464 1463 1467 1472 1476 1489 1504 1487 1487 1484 1466 1473 1478 1484 1484 1490 1493 1499 1504 1509 1514 1519 1523 1527 1533 1537 1540 1543 1545 1547 1548 1551 1553 1554 1555 1554 1554 1553 1553 1554
1451 1458 1469 1469 1470 1467 1464 1462 1463 1466 1469 1485 1499 1488 1467 1473 1478 1481 1483 1487 1492 1497 1501 1506 1511 1515 1520 1524 1528 1533 1536 1539 1541 1542 1545 1547 1548 1549 1550 1550 1550 1551 1551 1550
1446 1449 1453 1460 1461 1457 1471 1462 1461 1463 1477 1479 1479 1479 1470 1471 1474 1478 1482 1485 1490 1494 1498 1503 1507 1511 1516 1520 1524 1527 1530 1534 1536 1538 1542 1544 1545 1547 1547 1547 1548 1548 1548 1548
1443 1454 1451 1445 1440 1441 1453 1456 1460 1463 1463 1472 1468 1472 1468 1468 1472 1472 1479 1483 1488 1492 1495 1499 1503 1507 1512 1516 1519 1523 1526 1529 1532 1535 1538 1541 1543 1544 1545 1546 1546 1547 1546 1546
1441 1451 1447 1454 1447 1445 1449 1447 1449 1453 1454 1458 1460 1465 1459 1466 1469 1475 1479 1482 1484 1488 1493 1497 1501 1504 1508 1513 1517 1520 1523 1527 1531 1534 1537 1539 1541 1543 1544 1545 1545 1545 1544 1542
1439 1442 1452 1458 1450 1452 1463 1448 1449 1452 1451 1454 1464 1459 1460 1464 1469 1471 1475 1477 1480 1484 1489 1493 1497 1502 1507 1511 1514 1519 1522 1526 1530 1533 1536 1538 1540 1542 1543 1543 1543 1542 1541 1540
1438 1445 1446 1449 1451 1472 1437 1436 1444 1448 1452 1452 1452 1454 1459 1463 1464 1466 1469 1472 1477 1481 1486 1491 1495 1500 1505 1510 1513 1515 1521 1525 1528 1532 1534 1537 1539 1539 1540 1541 1541 1539 1539 1538
1434 1438 1443 1450 1448 1442 1436 1432 1438 1444 1450 1447 1452 1457 1457 1460 1464 1463 1464 1467 1473 1478 1482 1487 1493 1499 1503 1508 1510 1515 1519 1525 1529 1532 1535 1537 1538 1539 1538 1537 1537 1536 1536 1535
1436 1440 1439 1444 1449 1453 1432 1427 1435 1436 1449 1439 1445 1449 1450 1459 1461 1452 1455 1461 1470 1476 1480 1484 1490 1496 1500 1505 1509 1515 1519 1525 1530 1533 1535 1537 1538 1538 1537 1536 1534 1534 1535 1534
1438 1441 1443 1438 1443 1426 1414 1421 1431 1450 1442 1431 1436 1441 1444 1451 1448 1449 1450 1460 1468 1474 1479 1483 1489 1493 1498 1502 1507 1512 1518 1524 1529 1533 1533 1535 1536 1536 1536 1536 1534 1534 1533 1532
1428 1435 1436 1435 1442 1442 1411 1416 1423 1424 1425 1427 1430 1434 1438 1442 1448 1450 1452 1457 1464 1470 1475 1482 1487 1491 1497 1501 1506 1511 1516 1522 1527 1529 1531 1530 1533 1535 1535 1532 1531 1531 1530 1531
1421 1411 1415 1418 1418 1409 1414 1414 1418 1420 1420 1422 1425 1428 1432 1439 1444 1448 1451 1457 1463 1468 1474 1477 1480 1487 1495 1501 1506 1509 1514 1519 1522 1524 1528 1529 1528 1532 1533 1530 1531 1532 1530 1529
1409 1406 1408 1414 1411 1409 1413 1416 1417 1418 1418 1420 1421 1424 1427 1431 1439 1444 1451 1457 1463 1469 1474 1478 1482 1485 1491 1499 1505 1510 1513 1516 1519 1519 1526 1525 1524 1529 1530 1532 1532 1531 1531 1529
1394 1404 1404 1404 1403 1406 1408 1411 1413 1414 1414 1415 1417 1420 1423 1430 1436 1442 1448 1456 1463 1468 1474 1477 1480 1483 1488 1495 1501 1506 1511 1515 1519 1520 1525 1528 1526 1527 1528 1528 1529 1530 1528 1526
1394 1395 1398 1398 1401 1403 1403 1405 1408 1410 1410 1411 1414 1417 1422 1427 1432 1438 1446 1454 1462 1468 1472 1475 1478 1482 1487 1493 1499 1505 1511 1514 1516 1517 1520 1522 1527 1529 1530 1529 1528 1529 1527 1523
Wind_Speed
17 11 14 15 10 8 2 3 2 4 7 7 7 4 12 16 15 14 13 13 13 13 13 15 17 17 18 19 21 23 27 27 25 25 21 16 15 13 12 13 12 11 11 9
9 17 16 7 5 7 7 6 4 4 4 9 6 8 10 15 15 14 15 15 15 15 16 17 17 18 19 20 21 24 29 30 28 26 25 20 17 14 13 12 12 10 9 10
17 18 10 13 11 11 9 7 3 6 2 11 4 11 13 13 13 15 15 15 17 18 19 19 19 19 19 19 20 22 26 29 30 29 25 25 22 21 19 15 12 10 10 11
21 12 14 15 16 13 12 8 5 4 7 3 9 6 12 15 15 18 19 19 19 20 19 20 20 21 20 19 18 19 22 25 27 28 27 25 19 16 12 12 10 10 11 11
19 13 17 18 18 15 11 3 5 5 10 6 9 8 8 14 14 18 22 22 22 22 22 22 22 22 21 20 20 19 20 20 23 26 27 25 24 17 13 12 12 13 14 12
18 11 20 20 11 12 8 7 5 7 7 9 10 11 13 10 16 18 24 25 24 24 24 23 22 22 22 22 21 21 23 22 22 22 23 24 22 18 14 11 12 11 13 12
13 15 12 11 14 12 16 14 9 8 7 5 5 8 2 7 10 8 21 29 28 26 26 26 26 25 25 25 24 23 25 25 24 24 24 24 23 23 21 20 15 15 13 14
19 20 18 14 20 14 19 19 11 12 11 7 5 8 6 3 3 8 15 25 31 29 28 28 28 27 26 26 26 25 25 26 26 26 25 24 22 22 20 18 17 14 14 15
20 22 23 17 19 19 18 21 21 14 2 5 10 7 8 12 10 10 15 22 28 32 30 30 28 28 26 26 26 26 25 25 24 24 25 24 23 23 22 22 20 16 16 14
12 18 17 19 18 20 14 20 12 10 11 13 8 9 6 9 5 3 12 21 23 26 29 29 28 28 27 25 24 24 23 24 22 23 24 23 22 22 21 20 17 16 15 17
11 12 15 20 18 21 10 13 14 14 14 11 7 10 9 6 1 3 11 19 23 24 25 27 27 25 24 23 22 22 21 20 20 20 19 20 18 18 17 15 13 16 13 15
20 11 13 22 23 23 24 21 20 11 11 12 9 4 7 6 4 4 8 16 19 19 19 19 20 20 21 22 20 19 17 16 16 16 19 17 14 12 14 15 16 14 15 15
24 12 13 19 12 13 21 23 24 21 15 16 13 12 10 6 6 6 8 14 16 16 17 17 17 17 17 16 16 15 14 13 12 14 13 9 9 12 11 10 12 12 13 12
27 19 20 17 19 16 21 21 20 22 14 16 14 16 9 10 10 10 10 12 15 16 17 17 17 17 16 15 15 14 12 10 10 8 7 7 5 5 4 7 8 9 9 7
19 22 19 21 6 26 22 24 25 26 24 20 16 16 16 11 11 11 10 11 14 15 16 18 18 17 17 17 16 15 13 13 11 8 7 6 5 3 3 5 5 6 8 11
20 16 18 21 14 11 19 25 26 25 25 25 20 18 13 16 19 9 13 13 15 16 17 17 18 18 19 19 18 17 16 13 12 11 9 6 4 2 2 3 6 10 13 14
19 15 15 20 21 19 19 20 17 15 17 14 18 14 10 12 14 20 19 19 19 19 20 20 20 20 20 20 21 19 18 16 13 10 8 7 5 2 3 7 10 11 11 10
14 18 13 14 17 25 15 21 21 18 17 18 15 13 9 13 18 22 21 21 19 20 21 21 21 22 22 21 21 21 18 15 13 11 9 7 3 2 7 9 10 10 8 8
9 14 12 14 15 11 19 15 15 22 19 21 19 17 20 13 8 16 18 20 20 21 22 22 23 24 24 22 22 20 19 15 13 11 7 3 2 5 6 7 9 10 9 7
11 7 9 12 21 24 15 18 16 14 18 20 25 21 22 14 9 11 23 21 20 21 22 26 26 25 24 24 22 20 18 15 12 8 4 2 5 7 8 8 9 8 6 7
14 11 14 11 14 16 11 20 23 19 10 21 22 25 26 16 21 3 18 20 20 22 24 26 26 26 25 25 25 22 19 15 10 4 1 3 8 9 7 7 6 6 7 8
16 12 12 14 14 17 11 16 24 13 20 12 18 21 24 32 10 11 18 24 27 28 29 28 28 26 25 26 24 22 17 13 8 5 2 5 6 3 3 5 7 9 9 9
15 17 13 12 14 4 12 18 22 22 17 23 23 20 23 25 18 18 22 26 28 30 31 31 33 32 29 27 23 20 16 12 8 3 2 3 2 2 4 6 8 7 9 9
16 14 10 12 15 16 16 11 12 13 18 16 18 19 23 31 23 22 23 26 28 30 31 30 31 33 32 28 23 16 14 11 8 5 4 3 3 4 4 6 7 7 8 8
11 14 15 15 13 11 22 20 22 16 13 13 15 19 25 26 24 24 26 27 29 31 31 32 32 33 31 28 24 19 13 10 8 5 5 7 7 5 5 4 4 4 7 9
21 9 15 12 19 16 16 19 22 19 16 12 14 19 22 24 27 26 27 29 31 32 33 32 31 33 31 27 21 14 10 8 8 10 12 10 6 5 4 3 2 5 7 10
Wind_Direction
194 209 212 196 228 25 232 246 187 163 140 214 239 159 169 185 194 191 194 193 194 192 188 191 190 193 195 202 208 213 217 219 223 224 230 240 250 259 266 276 294 306 298 310
179 219 209 205 181 224 192 197 189 98 159 222 216 235 168 184 205 203 198 199 197 192 190 190 188 191 197 202 207 213 218 221 225 226 229 232 240 251 261 271 285 290 290 300
207 208 192 200 198 216 216 230 143 315 186 224 261 226 208 191 203 212 213 205 201 200 197 196 194 197 198 202 205 210 217 220 223 224 231 238 244 253 259 270 271 272 276 294
220 157 188 202 209 215 231 195 257 224 248 293 209 113 191 192 200 210 215 210 206 204 204 203 200 203 202 206 206 209 212 217 221 224 226 233 234 242 255 259 258 259 276 282
203 186 191 212 215 206 247 169 227 233 249 281 197 267 118 190 200 207 215 215 209 205 205 205 204 208 205 206 205 211 212 214 218 225 227 235 241 243 246 252 260 270 271 286
218 204 209 209 194 217 161 176 188 230 256 232 168 242 150 175 218 209 206 212 212 205 205 207 207 208 207 209 208 210 216 216 218 221 225 230 233 235 238 251 258 269 273 277
191 199 199 221 189 189 196 208 216 226 204 241 148 217 215 171 160 208 202 205 212 204 204 205 206 206 208 209 210 212 221 221 222 228 231 234 240 248 254 262 264 264 272 276
194 198 192 189 215 191 205 221 222 207 213 164 150 216 219 216 130 196 213 206 205 206 203 207 208 208 210 210 212 214 220 226 227 232 238 242 244 249 258 266 265 264 274 277
199 212 184 188 207 196 202 224 230 263 286 249 168 214 271 238 238 209 204 205 203 204 204 208 207 210 211 213 214 216 222 233 232 236 243 246 250 254 260 264 263 271 273 271
198 203 189 187 200 214 209 207 205 233 227 230 165 216 221 175 177 162 198 194 192 201 205 209 210 210 211 215 216 218 221 230 236 235 241 249 255 259 263 265 268 262 260 272
181 235 170 184 199 188 191 204 223 236 233 219 218 201 204 229 264 78 158 178 184 190 198 205 211 212 213 214 215 217 220 221 229 234 235 239 242 253 260 260 260 260 259 266
202 205 181 195 203 218 202 202 206 221 193 253 298 227 146 209 236 178 157 172 178 184 188 194 199 204 211 212 214 217 216 221 224 230 240 246 250 247 252 262 264 275 275 290
196 224 201 188 180 209 224 212 208 220 237 216 228 237 156 164 230 197 181 172 173 174 179 183 185 190 195 197 200 203 209 211 218 235 246 233 228 256 248 255 270 290 299 304
191 214 218 204 207 191 209 211 222 222 214 232 220 257 180 192 217 180 182 177 171 171 174 176 176 178 179 179 182 186 189 188 208 210 190 216 210 202 222 261 287 296 304 314
198 219 203 242 231 202 202 209 206 218 225 229 240 221 251 205 218 218 185 179 178 176 176 177 172 170 169 172 171 166 168 176 186 187 180 183 196 219 267 298 308 314 316 315
209 214 214 222 213 222 211 218 214 223 226 235 233 246 204 228 232 240 214 196 193 185 180 177 171 167 167 164 157 160 165 162 159 157 162 182 203 228 262 303 313 323 329 331
202 207 201 217 219 224 234 219 211 217 227 234 230 229 220 230 225 226 223 213 203 188 180 175 169 163 161 159 159 153 153 156 160 169 170 169 173 190 307 326 330 332 336 341
185 209 200 217 210 222 230 218 226 231 210 222 232 225 211 239 244 242 229 223 207 189 177 171 164 159 157 151 148 152 154 158 161 162 162 163 177 304 326 330 338 347 360 359
187 189 201 221 205 218 217 195 208 207 218 218 219 233 241 240 256 242 230 218 206 190 176 167 162 156 150 152 153 158 154 156 155 152 152 160 315 318 330 338 346 345 348 359
197 237 234 195 228 223 221 178 196 211 228 218 220 221 229 194 226 241 212 201 187 178 169 161 158 153 154 155 156 152 147 144 143 154 171 267 317 338 345 345 342 350 12 352
187 202 207 206 221 235 218 212 178 214 209 206 211 218 226 198 225 276 165 168 171 167 160 156 154 153 156 154 154 151 148 150 155 166 217 339 352 341 339 343 355 9 359 354
187 189 196 213 214 234 219 203 209 222 224 220 205 213 211 212 197 158 154 160 163 162 159 155 153 149 147 152 157 154 156 158 175 210 334 339 327 321 345 357 352 356 357 353
211 206 191 211 206 146 193 210 213 235 224 221 226 226 213 191 183 169 162 163 166 165 160 160 155 152 153 158 163 162 163 174 190 150 288 294 324 352 15 5 17 19 4 14
224 215 225 187 226 220 222 224 235 237 243 247 236 229 197 188 181 168 165 165 165 163 162 158 152 153 155 163 165 168 169 181 168 168 209 179 105 81 41 47 34 19 14 12
223 188 221 219 231 211 228 237 245 250 246 234 227 209 193 184 177 167 163 165 166 164 164 159 158 158 159 162 165 166 168 155 158 154 135 113 103 95 43 48 45 42 18 20
221 224 216 227 219 222 238 231 235 230 231 222 203 189 184 178 169 165 163 166 168 168 164 160 158 161 161 161 162 162 169 172 179 149 135 130 99 94 123 91 6 21 20 22